Location: Unspecified
(0.0000°N, 0.0000°E)
Time: 13:22:53
(UTC+00:00)

deb Delta 98 - Visible Passes

Search period start: 20 July 2025 00:00
Search period end: 30 July 2025 00:00
Orbit: 1182 x 1481 km, 102.6° (Epoch: 19 July)

Date Brightness Start Highest point End Pass type
(mag) Time Alt. Az. Time Alt. Az. Time Alt. Az.
20 Jul ? 03:39:08 10° SE 03:45:19 28° ENE 03:51:12 10° NNE visible
20 Jul ? 05:28:33 10° S 05:35:12 33° WSW 05:41:32 10° NW visible
21 Jul ? 03:58:20 10° SE 04:05:19 42° ENE 04:11:56 10° N visible
22 Jul ? 04:17:54 10° SSE 04:25:20 62° ENE 04:32:21 10° N visible
23 Jul ? 04:37:46 10° SSE 04:45:20 89° E 04:52:28 10° NNW visible
24 Jul ? 03:12:16 10° E 03:15:21 13° ENE 03:18:22 10° NE visible
24 Jul ? 04:57:54 10° S 05:05:19 63° WSW 05:12:20 10° NNW visible
25 Jul ? 03:30:06 10° ESE 03:35:20 21° ENE 03:40:22 10° NNE visible
25 Jul ? 05:18:18 10° S 05:25:16 42° WSW 05:31:54 10° NW visible
26 Jul ? 03:48:57 10° SE 03:55:20 32° ENE 04:01:26 10° NNE visible
26 Jul ? 05:39:03 10° SSW 05:45:12 28° WSW 05:51:07 10° NW visible
27 Jul ? 04:08:17 10° SE 04:15:20 48° ENE 04:22:03 10° N visible
28 Jul ? 04:27:57 10° SSE 04:35:20 71° ENE 04:42:21 10° N visible
28 Jul ? 18:32:16 10° WNW 18:34:09 11° WNW 18:36:03 10° W visible
29 Jul ? 04:47:55 10° SSE 04:55:19 80° WSW 05:02:23 10° NNW visible
